THY15K EDDN-EDDF

Flight info

Callsign THY15K
Flight time N/A
Altitude 18000
Route SUKAD1G SUKAD DCT PIWAW T159 SPESA SPESA4B
Aircraft A321/M-SDE3FGHIRWY/LB1

Departure

Time 2026-05-04 19:52
Airport Nuremberg Airport (EDDN)

Arrival

Time N/A
Airport Frankfurt Main Airport (EDDF)
Time Latitude Longitude Altitude Speed Heading
2026-05-04 19:35 49.49583 11.08276 1042 ft 0 kts 187°
2026-05-04 19:46 49.49580 11.08275 1041 ft 3 kts 185°
2026-05-04 19:46 49.49564 11.08315 1041 ft 7 kts 84°
2026-05-04 19:46 49.49610 11.08399 1042 ft 14 kts 58°
2026-05-04 19:47 49.49604 11.08583 1045 ft 19 kts 97°
2026-05-04 19:47 49.49586 11.08770 1047 ft 16 kts 102°
2026-05-04 19:47 49.49566 11.08923 1049 ft 13 kts 99°
2026-05-04 19:47 49.49553 11.09060 1049 ft 15 kts 97°
2026-05-04 19:48 49.49538 11.09264 1052 ft 22 kts 98°
2026-05-04 19:48 49.49554 11.09406 1055 ft 8 kts 58°
2026-05-04 19:48 49.49593 11.09489 1056 ft 5 kts 52°
2026-05-04 19:48 49.49598 11.09499 1056 ft 0 kts 52°
2026-05-04 19:49 49.49624 11.09549 1057 ft 12 kts 48°
2026-05-04 19:49 49.49700 11.09512 1058 ft 12 kts 294°
2026-05-04 19:49 49.49707 11.09459 1058 ft 0 kts 279°
2026-05-04 19:51 49.49714 11.09389 1057 ft 27 kts 280°
2026-05-04 19:51 49.49781 11.08707 1045 ft 99 kts 278°
2026-05-04 19:51 49.49910 11.07373 1044 ft 151 kts 278°
2026-05-04 19:51 49.50021 11.06195 1079 ft 175 kts 278°
2026-05-04 19:52 49.50209 11.04340 1647 ft 174 kts 278°
2026-05-04 19:52 49.50396 11.02483 2219 ft 180 kts 278°
2026-05-04 19:52 49.50589 11.00487 2452 ft 198 kts 278°
2026-05-04 19:52 49.50802 10.98279 2575 ft 220 kts 278°
2026-05-04 19:53 49.51040 10.95814 2749 ft 246 kts 278°
2026-05-04 19:53 49.51299 10.93124 3303 ft 259 kts 278°
2026-05-04 19:53 49.51567 10.90356 4089 ft 263 kts 278°
2026-05-04 19:53 49.51837 10.87559 4876 ft 266 kts 278°
2026-05-04 19:54 49.52111 10.84714 5651 ft 269 kts 278°
2026-05-04 19:54 49.52388 10.81837 6409 ft 273 kts 278°
2026-05-04 19:54 49.52667 10.78936 7154 ft 276 kts 278°
2026-05-04 19:54 49.52948 10.76026 7875 ft 279 kts 278°
2026-05-04 19:55 49.53238 10.73026 8595 ft 282 kts 278°
2026-05-04 19:55 49.53522 10.70065 9283 ft 285 kts 278°
2026-05-04 19:55 49.53809 10.67027 9973 ft 288 kts 278°
2026-05-04 19:55 49.54101 10.63899 10333 ft 305 kts 278°
2026-05-04 19:56 49.54413 10.60546 10471 ft 327 kts 278°
2026-05-04 19:56 49.54761 10.56974 10624 ft 347 kts 281°
2026-05-04 19:56 49.55464 10.53365 11095 ft 355 kts 292°
2026-05-04 19:56 49.56627 10.49991 11700 ft 360 kts 304°
2026-05-04 19:57 49.58087 10.46841 12324 ft 363 kts 306°
2026-05-04 19:57 49.59568 10.43661 12835 ft 366 kts 306°
2026-05-04 19:57 49.61008 10.40559 12973 ft 345 kts 305°
2026-05-04 19:57 49.62368 10.37624 13006 ft 328 kts 305°
2026-05-04 19:58 49.63661 10.34825 13007 ft 312 kts 305°
2026-05-04 19:58 49.64900 10.32124 13147 ft 307 kts 303°
2026-05-04 19:58 49.65740 10.29168 13814 ft 307 kts 280°
2026-05-04 19:58 49.65725 10.25852 14449 ft 309 kts 256°
2026-05-04 19:59 49.64859 10.22866 15030 ft 311 kts 237°
2026-05-04 19:59 49.63627 10.20104 15631 ft 314 kts 234°
2026-05-04 19:59 49.62345 10.17354 16208 ft 317 kts 234°
2026-05-04 19:59 49.61050 10.14595 16772 ft 320 kts 234°
2026-05-04 20:00 49.59738 10.11803 17330 ft 322 kts 234°
2026-05-04 20:00 49.58416 10.08995 17839 ft 326 kts 234°
2026-05-04 20:00 49.57079 10.06157 17976 ft 327 kts 234°
2026-05-04 20:00 49.55744 10.03325 17996 ft 326 kts 234°
2026-05-04 20:01 49.54600 10.00322 18010 ft 325 kts 250°
2026-05-04 20:01 49.54169 9.96927 18016 ft 325 kts 270°
2026-05-04 20:01 49.54549 9.93511 18004 ft 325 kts 291°
2026-05-04 20:01 49.55690 9.90527 17984 ft 324 kts 309°
2026-05-04 20:02 49.57123 9.87913 17575 ft 323 kts 310°
2026-05-04 20:02 49.58581 9.85291 17176 ft 321 kts 310°
2026-05-04 20:02 49.60038 9.82677 16793 ft 319 kts 310°
2026-05-04 20:02 49.61484 9.80077 16422 ft 317 kts 310°
2026-05-04 20:03 49.62913 9.77500 16054 ft 316 kts 310°
2026-05-04 20:03 49.64333 9.74927 15683 ft 314 kts 310°
2026-05-04 20:03 49.65745 9.72367 15326 ft 312 kts 310°
2026-05-04 20:03 49.67147 9.69822 14951 ft 311 kts 310°
2026-05-04 20:04 49.68540 9.67283 14593 ft 309 kts 310°
2026-05-04 20:04 49.69918 9.64761 14234 ft 307 kts 310°
2026-05-04 20:04 49.71292 9.62243 13873 ft 305 kts 310°
2026-05-04 20:04 49.72660 9.59741 13516 ft 304 kts 310°
2026-05-04 20:05 49.74021 9.57251 13155 ft 302 kts 310°
2026-05-04 20:05 49.75375 9.54783 12805 ft 300 kts 310°
2026-05-04 20:05 49.76719 9.52329 12448 ft 299 kts 310°
2026-05-04 20:05 49.78058 9.49879 12094 ft 297 kts 310°
2026-05-04 20:06 49.79387 9.47440 11735 ft 295 kts 310°
2026-05-04 20:06 49.80873 9.45273 11367 ft 294 kts 322°
2026-05-04 20:06 49.82512 9.43399 10987 ft 293 kts 324°
2026-05-04 20:06 49.84163 9.41560 10619 ft 291 kts 324°
2026-05-04 20:07 49.85811 9.39731 10256 ft 290 kts 324°
2026-05-04 20:07 49.87428 9.37937 9885 ft 289 kts 324°
2026-05-04 20:07 49.89057 9.36130 9539 ft 287 kts 324°
2026-05-04 20:07 49.90674 9.34334 9169 ft 285 kts 324°
2026-05-04 20:08 49.92284 9.32546 8797 ft 284 kts 324°
2026-05-04 20:08 49.93885 9.30768 8435 ft 282 kts 324°
2026-05-04 20:08 49.95478 9.28998 8067 ft 281 kts 324°
2026-05-04 20:08 49.97060 9.27239 7735 ft 278 kts 324°
2026-05-04 20:09 49.98601 9.25526 7607 ft 267 kts 324°
2026-05-04 20:09 50.00079 9.23883 7476 ft 256 kts 324°
2026-05-04 20:09 50.01505 9.22298 7324 ft 247 kts 324°
2026-05-04 20:09 50.02877 9.20773 7049 ft 244 kts 324°
2026-05-04 20:10 50.04254 9.19242 6736 ft 242 kts 324°
2026-05-04 20:10 50.05623 9.17720 6423 ft 241 kts 324°
2026-05-04 20:10 50.06988 9.16200 6099 ft 240 kts 324°
2026-05-04 20:10 50.08332 9.14705 5891 ft 233 kts 324°
2026-05-04 20:11 50.09615 9.13277 5768 ft 218 kts 324°
2026-05-04 20:11 50.10799 9.11961 5643 ft 201 kts 324°
2026-05-04 20:11 50.11913 9.10723 5371 ft 194 kts 324°
2026-05-04 20:11 50.13011 9.09505 5028 ft 192 kts 324°
2026-05-04 20:12 50.13945 9.08069 5011 ft 191 kts 303°
2026-05-04 20:12 50.14328 9.06932 5016 ft 192 kts 291°
2026-05-04 20:12 50.14607 9.04900 5016 ft 192 kts 271°
2026-05-04 20:12 50.14422 9.02850 5017 ft 192 kts 251°
2026-05-04 20:13 50.13983 9.00970 5012 ft 184 kts 250°
2026-05-04 20:13 50.13548 8.99111 5012 ft 182 kts 250°
2026-05-04 20:13 50.13115 8.97257 5014 ft 182 kts 250°
2026-05-04 20:13 50.12682 8.95408 5017 ft 182 kts 250°
2026-05-04 20:14 50.12248 8.93555 4922 ft 182 kts 250°
2026-05-04 20:14 50.11815 8.91706 4723 ft 181 kts 250°
2026-05-04 20:14 50.11392 8.89904 4501 ft 180 kts 250°
2026-05-04 20:14 50.10961 8.88072 4259 ft 180 kts 250°
2026-05-04 20:15 50.10532 8.86245 4029 ft 179 kts 250°
2026-05-04 20:15 50.10104 8.84426 3792 ft 178 kts 250°
2026-05-04 20:15 50.09678 8.82616 3556 ft 178 kts 250°
2026-05-04 20:15 50.09255 8.80823 3321 ft 177 kts 250°
2026-05-04 20:16 50.08831 8.79021 3092 ft 177 kts 250°
2026-05-04 20:16 50.08409 8.77233 2851 ft 176 kts 250°
2026-05-04 20:16 50.07988 8.75452 2620 ft 173 kts 250°
2026-05-04 20:16 50.07585 8.73750 2403 ft 163 kts 250°
2026-05-04 20:17 50.07213 8.72175 2190 ft 153 kts 250°
2026-05-04 20:17 50.07094 8.71674 2128 ft 152 kts 250°